sat.trackr.live / text

‹ back to catalog

LEMUR-2-LLOYD

NORAD 60577 · 2024-149DP

PAYLOAD ACTIVE UNKNOWN

§ Identity

Operator
Country
US
Launch date
2024-08-16
Launch site
AFWTR
Launch vehicle
Mass (kg)
RCS (m²)

Purposes: earth_obs

External: N2YO · Heavens-Above · Gunter

§ Orbital elements

Epoch: 2026-05-25T03:57:34.803360Z

Period
95.45 min
Inclination
97.6744°
Eccentricity
0.0003348
Mean motion
15.08713342 rev/d
Perigee alt
537.8 km
Apogee alt
542.4 km
Semi-major
6,918.3 km
B*
6.6902e-4
RAAN
226.2908°
Arg perigee
204.0422°
Mean anomaly
156.0650°
Rev number
9,692

§ Raw data

LEMUR-2-LLOYD1 60577U 24149DP  26145.16498615  .00010439  00000+0  66902-3 0  99952 60577  97.6744 226.2908 0003348 204.0422 156.0650 15.08713342 96928

JSON: /api/v1/satellites/60577 · /tle

For live sub-satellite position, see the globe view (requires WebGL).

§ Visibility from observer

Set your observer location to see the next 7 days of passes ≥ 10°. The values pass through the URL so the page stays shareable.

No JS? Fill the form by hand. The geolocation button needs JavaScript.

§ Radio — SatNOGS DB

ModeDescriptionDownlinkUplink
BPSK Mode U - Transmitter 400.551 MHz

1 transmitter · refreshed weekly from db.satnogs.org